This is the latest recevied weather packets stored in our database for station/object HP3ICC-23. If no packets are shown the sender has not sent any weather packets the latest 10 day(s).
| Time | Temp. | Humidity | Pressure | Rain* | Wind** | Luminosity | Snow |
|---|---|---|---|---|---|---|---|
| 1777994572 | 18.33° C | 76% | 1012 hPa | 0 mm | - | - | - |
| 1777993432 | 18.33° C | 76% | 1012 hPa | 0 mm | - | - | - |
| 1777993372 | 18.33° C | 76% | 1012 hPa | 0 mm | - | - | - |
| 1777992232 | 18.33° C | 74% | 1013 hPa | 0 mm | - | - | - |
| 1777992171 | 18.33° C | 74% | 1013 hPa | 0 mm | - | - | - |
| 1777991031 | 17.78° C | 81% | 1012 hPa | 0 mm | - | - | - |
| 1777990971 | 17.78° C | 81% | 1012 hPa | 0 mm | - | - | - |
| 1777989830 | 17.22° C | 84% | 1012 hPa | 0 mm | - | - | - |
| 1777989770 | 17.22° C | 84% | 1012 hPa | 0 mm | - | - | - |
| 1777988630 | 15.56° C | 81% | 1013 hPa | 0 mm | - | - | - |
| 1777988570 | 15.56° C | 81% | 1013 hPa | 0 mm | - | - | - |
| 1777987430 | 16.11° C | 88% | 1012 hPa | 0 mm | - | - | - |
| 1777987369 | 16.11° C | 88% | 1012 hPa | 0 mm | - | - | - |
| 1777986229 | 16.67° C | 88% | 1013 hPa | 0 mm | - | - | - |
| 1777986169 | 16.67° C | 88% | 1013 hPa | 0 mm | - | - | - |
| 1777985028 | 14.44° C | 90% | 1013 hPa | 0 mm | - | - | - |
| 1777984968 | 14.44° C | 90% | 1013 hPa | 0 mm | - | - | - |
| 1777983828 | 15° C | 90% | 1011 hPa | 0 mm | - | - | - |
| 1777983768 | 15° C | 90% | 1011 hPa | 0 mm | - | - | - |
| 1777982627 | 14.44° C | 90% | 1011 hPa | 0 mm | - | - | - |
| 1777982567 | 14.44° C | 90% | 1011 hPa | 0 mm | - | - | - |
| 1777981427 | 15° C | 90% | 1012 hPa | 0 mm | - | - | - |
| 1777981367 | 15° C | 90% | 1012 hPa | 0 mm | - | - | - |
| 1777980226 | 13.33° C | 78% | 1011 hPa | 0 mm | - | - | - |
| 1777980166 | 13.33° C | 78% | 1011 hPa | 0 mm | - | - | - |
* Rain latest hour (hover to see other rain measurements)
** Current wind speed in m/s (hover to see current wind gust speed)